Details for Lufthansa Cargo at EDDF




Go Back


Latest METAR
Local Time

EDDF 180620Z 34003KT 300V020 9999 BKN040 19/12 Q1022 NOSIG
18/08/2018, 08:28:10

Description
Results
Lufthansa Cargo Logo
Number of Pilots based at EDDF
0 Pilots Based here
Number of Lufthansa Cargo Flights Departed from EDDF
0 Flights Departed
Number of Lufthansa Cargo Flights Arrived at EDDF
0 Flights Arrived
Number of Lufthansa Cargo Schedules Departing from EDDF
55 Schedules
Number of Lufthansa Cargo Schedules Arriving at EDDF
67 Schedules
Number of Lufthansa Cargo Schedules Departing from EDDF availible today
16 Schedules Today
Number of Lufthansa Cargo Schedules Arriving at EDDF availible today
19 Schedules Today
Average Landing Rate at EDDF
-247 fpm
Lufthansa Cargo Average Landing Rate at EDDF
0 fpm
Total Fuel Purchased at EDDF by Lufthansa Cargo
0.00 kgs / 0.00 lbs

Pilots Based at EDDF


Pilot ID
Pilot Name
Pilot Rank
No. of Flights
No. of Flying Hours
There are no pilots assigned to this hub!   Will you be the first?
Content